Terminal Aerodrome Forecast
Issued by NWS

Home | Current Version | Previous Version | Text Only | Print | Product List | Glossary On
Versions: 1 2 3 4 5 6 7 8 9 10 11 12 13 14 15 16 17
000
FTUS43 KEAX 281100
TAFMKC
TAF
KMKC 281120Z 2812/0112 10008KT P6SM OVC060
     FM281700 14007KT 2SM -SN OVC015
     FM010000 15005KT P6SM OVC015
     FM010500 17005KT 2SM -SN OVC007=

USA.gov is the U.S. government's official web portal to all federal, state and local government web resources and services.